| time (UTC) | temp C | wind direction | speed KPH | gust KPH | rain 1hr cm | rain 24hr cm | rain mn cm | humidity % | barometer mb |
| 20260502225020 | 20 | 261 | 6.4 | 12.9 | 0.00 | 0.10 | 0.05 | 28 | 1016.1 |
| 20260502224538 | 20 | 360 | 3.2 | 11.3 | 0.00 | 0.10 | 0.05 | 27 | 1016.2 |
| 20260502224022 | 20 | 253 | 4.8 | 16.1 | 0.00 | 0.10 | 0.05 | 27 | 1016.1 |
| 20260502223523 | 20 | 0 | 3.2 | 16.1 | 0.00 | 0.10 | 0.05 | 30 | 1016.3 |
| 20260502223041 | 20 | 298 | 9.7 | 16.1 | 0.00 | 0.10 | 0.05 | 28 | 1016.3 |
| 20260502222523 | 20 | 336 | 6.4 | 12.9 | 0.00 | 0.10 | 0.05 | 28 | 1016.3 |
| 20260502222023 | 20 | 211 | 4.8 | 11.3 | 0.00 | 0.10 | 0.05 | 30 | 1016.3 |
| 20260502221537 | 20 | 292 | 4.8 | 14.5 | 0.00 | 0.10 | 0.05 | 30 | 1016.4 |
| 20260502221022 | 20 | 53 | 3.2 | 14.5 | 0.00 | 0.10 | 0.05 | 31 | 1016.4 |
| 20260502220522 | 20 | 5 | 3.2 | 11.3 | 0.00 | 0.10 | 0.05 | 31 | 1016.5 |
| 20260502220039 | 20 | 132 | 4.8 | 11.3 | 0.00 | 0.10 | 0.05 | 31 | 1016.4 |
| 20260502215522 | 20 | 128 | 1.6 | 12.9 | 0.00 | 0.10 | 0.05 | 32 | 1016.6 |
| 20260502215021 | 20 | 0 | 1.6 | 14.5 | 0.00 | 0.10 | 0.05 | 32 | 1016.7 |
| 20260502214540 | 20 | 294 | 6.4 | 14.5 | 0.00 | 0.10 | 0.05 | 30 | 1016.7 |
| 20260502214023 | 20 | 232 | 4.8 | 12.9 | 0.00 | 0.10 | 0.05 | 33 | 1016.7 |
| 20260502213522 | 20 | 225 | 4.8 | 14.5 | 0.00 | 0.10 | 0.05 | 30 | 1016.8 |
| 20260502213039 | 20 | 90 | 0.0 | 14.5 | 0.00 | 0.10 | 0.05 | 31 | 1016.9 |
| 20260502212524 | 20 | 28 | 6.4 | 14.5 | 0.00 | 0.10 | 0.05 | 34 | 1017.0 |
| 20260502212023 | 20 | 333 | 3.2 | 17.7 | 0.00 | 0.10 | 0.05 | 34 | 1017.1 |
| 20260502211543 | 20 | 281 | 6.4 | 20.9 | 0.00 | 0.10 | 0.05 | 29 | 1017.1 |
| 20260502211023 | 20 | 337 | 9.7 | 20.9 | 0.00 | 0.10 | 0.05 | 29 | 1017.2 |
| 20260502210522 | 20 | 275 | 9.7 | 20.9 | 0.00 | 0.10 | 0.05 | 29 | 1017.3 |
| 20260502210040 | 20 | 0 | 6.4 | 19.3 | 0.00 | 0.10 | 0.05 | 31 | 1017.4 |
| 20260502205523 | 20 | 343 | 3.2 | 20.9 | 0.00 | 0.10 | 0.05 | 31 | 1017.6 |
| 20260502205025 | 20 | 13 | 9.7 | 20.9 | 0.00 | 0.10 | 0.05 | 34 | 1017.6 |
| 20260502204540 | 20 | 360 | 8.0 | 17.7 | 0.00 | 0.10 | 0.05 | 31 | 1017.6 |
| 20260502204022 | 20 | 5 | 3.2 | 17.7 | 0.00 | 0.10 | 0.05 | 30 | 1017.6 |
| 20260502203522 | 20 | 22 | 9.7 | 22.5 | 0.00 | 0.10 | 0.05 | 35 | 1017.7 |
| 20260502203039 | 20 | 287 | 11.3 | 22.5 | 0.00 | 0.10 | 0.05 | 31 | 1017.7 |
| 20260502202522 | 19 | 52 | 8.0 | 22.5 | 0.00 | 0.10 | 0.05 | 34 | 1017.7 |
| 20260502202022 | 19 | 47 | 4.8 | 22.5 | 0.00 | 0.10 | 0.05 | 32 | 1017.8 |
| 20260502201538 | 20 | 306 | 9.7 | 19.3 | 0.00 | 0.10 | 0.05 | 33 | 1017.8 |
| 20260502201023 | 20 | 275 | 6.4 | 17.7 | 0.00 | 0.10 | 0.05 | 33 | 1017.8 |
| 20260502200523 | 19 | 306 | 1.6 | 20.9 | 0.00 | 0.10 | 0.05 | 33 | 1017.8 |
| 20260502200036 | 20 | 314 | 6.4 | 22.5 | 0.00 | 0.10 | 0.05 | 31 | 1017.8 |
| 20260502195523 | 20 | 333 | 11.3 | 22.5 | 0.00 | 0.10 | 0.05 | 35 | 1017.8 |
| 20260502195022 | 19 | 360 | 8.0 | 22.5 | 0.00 | 0.10 | 0.05 | 38 | 1017.9 |
| 20260502194541 | 19 | 78 | 3.2 | 12.9 | 0.00 | 0.10 | 0.05 | 37 | 1017.9 |
| 20260502194022 | 18 | 311 | 3.2 | 17.7 | 0.00 | 0.10 | 0.05 | 34 | 1018.0 |
| 20260502193537 | 19 | 342 | 6.4 | 22.5 | 0.00 | 0.10 | 0.05 | 34 | 1018.1 |
| 20260502193038 | 19 | 28 | 9.7 | 22.5 | 0.00 | 0.10 | 0.05 | 32 | 1018.3 |
| 20260502192526 | 18 | 22 | 9.7 | 19.3 | 0.00 | 0.10 | 0.05 | 40 | 1018.2 |
| 20260502192022 | 18 | 81 | 6.4 | 19.3 | 0.00 | 0.10 | 0.05 | 32 | 1018.3 |
| 20260502191537 | 19 | 55 | 11.3 | 22.5 | 0.00 | 0.10 | 0.05 | 34 | 1018.5 |
| 20260502191022 | 18 | 36 | 11.3 | 22.5 | 0.00 | 0.10 | 0.05 | 37 | 1018.5 |
| 20260502190522 | 18 | 339 | 8.0 | 17.7 | 0.00 | 0.10 | 0.05 | 36 | 1018.5 |
| 20260502190041 | 18 | 315 | 3.2 | 24.1 | 0.00 | 0.10 | 0.05 | 32 | 1018.5 |
| 20260502185522 | 18 | 43 | 8.0 | 24.1 | 0.00 | 0.10 | 0.05 | 38 | 1018.6 |
| 20260502185023 | 18 | 0 | 9.7 | 27.4 | 0.00 | 0.10 | 0.05 | 35 | 1018.7 |
| 20260502184549 | 18 | 269 | 9.7 | 27.4 | 0.00 | 0.10 | 0.05 | 33 | 1018.8 |
| 20260502184022 | 18 | 287 | 9.7 | 20.9 | 0.00 | 0.10 | 0.05 | 35 | 1018.8 |
| 20260502183523 | 18 | 302 | 6.4 | 19.3 | 0.00 | 0.10 | 0.05 | 35 | 1018.9 |
| 20260502183051 | 18 | 11 | 4.8 | 20.9 | 0.00 | 0.10 | 0.05 | 34 | 1019.1 |
| 20260502182524 | 18 | 311 | 11.3 | 20.9 | 0.00 | 0.10 | 0.05 | 36 | 1019.0 |
| 20260502182023 | 18 | 9 | 11.3 | 20.9 | 0.00 | 0.10 | 0.05 | 36 | 1019.1 |
| 20260502181543 | 17 | 134 | 8.0 | 16.1 | 0.00 | 0.10 | 0.05 | 38 | 1019.1 |
| 20260502181022 | 18 | 123 | 9.7 | 17.7 | 0.00 | 0.10 | 0.05 | 42 | 1018.9 |
| 20260502180523 | 17 | 159 | 4.8 | 19.3 | 0.00 | 0.10 | 0.05 | 37 | 1019.1 |
| 20260502164022 | 16 | 9 | 12.9 | 24.1 | 0.00 | 0.10 | 0.05 | 40 | 1019.8 |
| 20260502163522 | 16 | 57 | 9.7 | 19.3 | 0.00 | 0.10 | 0.05 | 46 | 1020.0 |
| 20260502163044 | 16 | 29 | 8.0 | 19.3 | 0.00 | 0.10 | 0.05 | 40 | 1019.9 |
| 20260502162525 | 16 | 48 | 11.3 | 20.9 | 0.00 | 0.10 | 0.05 | 44 | 1019.8 |
| 20260502162029 | 16 | 34 | 11.3 | 22.5 | 0.00 | 0.10 | 0.05 | 41 | 1019.9 |
| 20260502161541 | 16 | 26 | 14.5 | 22.5 | 0.00 | 0.10 | 0.05 | 41 | 1020.0 |
| 20260502161024 | 15 | 348 | 9.7 | 19.3 | 0.00 | 0.10 | 0.05 | 41 | 1019.9 |
| 20260502160525 | 15 | 51 | 11.3 | 19.3 | 0.00 | 0.10 | 0.05 | 41 | 1020.1 |
| 20260502152024 | 14 | 62 | 8.0 | 17.7 | 0.00 | 0.10 | 0.05 | 50 | 1020.2 |
| 20260502151543 | 14 | 41 | 8.0 | 17.7 | 0.00 | 0.10 | 0.05 | 48 | 1020.2 |
| 20260502151024 | 13 | 70 | 9.7 | 22.5 | 0.00 | 0.10 | 0.05 | 48 | 1020.3 |
| 20260502150524 | 13 | 79 | 12.9 | 24.1 | 0.00 | 0.10 | 0.05 | 49 | 1020.2 |
| 20260502130524 | 7 | 42 | 8.0 | 16.1 | 0.00 | 0.10 | 0.05 | 78 | 1019.4 |
| 20260502123522 | 6 | 53 | 6.4 | 12.9 | 0.00 | 0.10 | 0.05 | 86 | 1019.1 |
| 20260502123041 | 5 | 49 | 6.4 | 12.9 | 0.00 | 0.10 | 0.05 | 86 | 1019.1 |
| 20260502122523 | 5 | 45 | 4.8 | 8.0 | 0.00 | 0.10 | 0.05 | 86 | 1019.0 |
| 20260502122023 | 5 | 42 | 4.8 | 8.0 | 0.00 | 0.10 | 0.05 | 86 | 1018.9 |
| 20260502121538 | 5 | 57 | 4.8 | 9.7 | 0.00 | 0.10 | 0.05 | 86 | 1018.8 |
| 20260502121023 | 5 | 42 | 4.8 | 12.9 | 0.00 | 0.10 | 0.05 | 85 | 1018.7 |
| 20260502120523 | 5 | 42 | 8.0 | 12.9 | 0.00 | 0.10 | 0.05 | 85 | 1018.7 |
| 20260502115522 | 5 | 36 | 6.4 | 9.7 | 0.00 | 0.10 | 0.05 | 83 | 1018.5 |
| 20260502115024 | 5 | 32 | 4.8 | 6.4 | 0.00 | 0.10 | 0.05 | 83 | 1018.6 |
| 20260502114544 | 5 | 39 | 3.2 | 8.0 | 0.00 | 0.10 | 0.05 | 83 | 1018.5 |
| 20260502114022 | 5 | 30 | 3.2 | 9.7 | 0.00 | 0.10 | 0.05 | 83 | 1018.5 |
| 20260502113524 | 5 | 40 | 4.8 | 9.7 | 0.00 | 0.10 | 0.05 | 83 | 1018.4 |
| 20260502113040 | 5 | 51 | 4.8 | 9.7 | 0.00 | 0.10 | 0.05 | 84 | 1018.2 |
| 20260502112521 | 5 | 37 | 4.8 | 11.3 | 0.00 | 0.10 | 0.05 | 84 | 1018.2 |
| 20260502112027 | 5 | 42 | 6.4 | 11.3 | 0.00 | 0.10 | 0.05 | 84 | 1018.1 |
| 20260502111536 | 5 | 52 | 6.4 | 16.1 | 0.00 | 0.10 | 0.05 | 85 | 1018.1 |
| 20260502111023 | 5 | 35 | 8.0 | 16.1 | 0.00 | 0.10 | 0.05 | 85 | 1018.0 |
| 20260502110521 | 5 | 39 | 8.0 | 14.5 | 0.00 | 0.10 | 0.05 | 86 | 1018.1 |
| 20260502110039 | 6 | 41 | 6.4 | 11.3 | 0.00 | 0.10 | 0.05 | 87 | 1018.1 |
| 20260502105525 | 6 | 53 | 6.4 | 9.7 | 0.00 | 0.10 | 0.05 | 87 | 1018.0 |
| 20260502105024 | 6 | 41 | 6.4 | 11.3 | 0.00 | 0.10 | 0.05 | 87 | 1017.9 |
| 20260502104547 | 6 | 49 | 6.4 | 12.9 | 0.00 | 0.10 | 0.05 | 88 | 1018.0 |
| 20260502104025 | 6 | 43 | 8.0 | 12.9 | 0.00 | 0.10 | 0.05 | 88 | 1017.9 |
| 20260502103524 | 6 | 38 | 8.0 | 11.3 | 0.00 | 0.10 | 0.05 | 88 | 1017.9 |
| 20260502103039 | 6 | 40 | 8.0 | 9.7 | 0.00 | 0.10 | 0.05 | 89 | 1017.8 |
| 20260502102525 | 6 | 40 | 6.4 | 11.3 | 0.00 | 0.10 | 0.05 | 89 | 1017.9 |
| 20260502102024 | 6 | 46 | 6.4 | 11.3 | 0.00 | 0.10 | 0.05 | 89 | 1017.8 |
| 20260502101604 | 6 | 51 | 4.8 | 9.7 | 0.00 | 0.10 | 0.05 | 90 | 1017.9 |
| 20260502101025 | 6 | 52 | 4.8 | 9.7 | 0.00 | 0.10 | 0.05 | 90 | 1017.9 |
| 20260502100525 | 6 | 57 | 4.8 | 11.3 | 0.00 | 0.10 | 0.05 | 90 | 1017.8 |
| 20260502091024 | 7 | 52 | 4.8 | 14.5 | 0.00 | 0.10 | 0.05 | 90 | 1017.5 |
| 20260502090521 | 7 | 53 | 6.4 | 14.5 | 0.00 | 0.10 | 0.05 | 90 | 1017.5 |
| 20260502071536 | 10 | 315 | 3.2 | 6.4 | 0.00 | 0.10 | 0.05 | 87 | 1017.9 |
| 20260502071024 | 10 | 217 | 1.6 | 4.8 | 0.00 | 0.10 | 0.05 | 87 | 1017.8 |
| 20260502070523 | 10 | 216 | 0.0 | 6.4 | 0.00 | 0.10 | 0.05 | 87 | 1017.7 |
| 20260502070052 | 10 | 0 | 0.0 | 6.4 | 0.00 | 0.10 | 0.05 | 87 | 1017.4 |
| 20260502065521 | 10 | 220 | 3.2 | 6.4 | 0.00 | 0.10 | 0.05 | 86 | 1017.4 |
| 20260502065022 | 10 | 204 | 3.2 | 9.7 | 0.00 | 0.10 | 0.05 | 86 | 1017.5 |
| 20260502064538 | 10 | 284 | 3.2 | 9.7 | 0.00 | 0.10 | 0.05 | 86 | 1017.6 |
| 20260502064022 | 10 | 287 | 0.0 | 6.4 | 0.03 | 0.10 | 0.05 | 85 | 1017.3 |
| 20260502063523 | 10 | 56 | 1.6 | 6.4 | 0.03 | 0.10 | 0.05 | 84 | 1017.3 |
| 20260502063039 | 10 | 82 | 3.2 | 4.8 | 0.03 | 0.10 | 0.05 | 84 | 1017.3 |
| 20260502062523 | 10 | 0 | 1.6 | 9.7 | 0.03 | 0.10 | 0.05 | 83 | 1017.3 |
| 20260502062023 | 10 | 36 | 3.2 | 9.7 | 0.05 | 0.10 | 0.05 | 83 | 1017.3 |
| 20260502061538 | 10 | 34 | 4.8 | 12.9 | 0.05 | 0.10 | 0.05 | 83 | 1017.2 |
| 20260502061021 | 10 | 32 | 6.4 | 17.7 | 0.05 | 0.10 | 0.05 | 83 | 1017.0 |
| 20260502060525 | 11 | 0 | 1.6 | 17.7 | 0.05 | 0.10 | 0.05 | 84 | 1017.2 |
| 20260502060038 | 11 | 11 | 9.7 | 16.1 | 0.05 | 0.10 | 0.05 | 85 | 1017.4 |
| 20260502055522 | 11 | 284 | 8.0 | 17.7 | 0.05 | 0.10 | 0.05 | 84 | 1017.2 |
| 20260502055023 | 11 | 177 | 8.0 | 17.7 | 0.08 | 0.10 | 0.05 | 83 | 1017.2 |
| 20260502054540 | 11 | 44 | 4.8 | 8.0 | 0.08 | 0.10 | 0.05 | 85 | 1017.7 |
| 20260502054023 | 11 | 317 | 4.8 | 9.7 | 0.05 | 0.08 | 0.03 | 84 | 1017.7 |
| 20260502053523 | 11 | 327 | 4.8 | 9.7 | 0.05 | 0.08 | 0.03 | 83 | 1017.4 |
| 20260502053036 | 11 | 355 | 3.2 | 9.7 | 0.05 | 0.08 | 0.03 | 83 | 1017.3 |
| 20260502052521 | 11 | 322 | 6.4 | 9.7 | 0.08 | 0.08 | 0.03 | 83 | 1017.0 |
| 20260502052025 | 11 | 313 | 0.0 | 11.3 | 0.05 | 0.05 | 0.00 | 82 | 1016.6 |
| 20260502051555 | 11 | 155 | 3.2 | 14.5 | 0.05 | 0.05 | 0.00 | 82 | 1016.4 |
| 20260502051022 | 11 | 169 | 8.0 | 14.5 | 0.05 | 0.05 | 0.00 | 82 | 1016.2 |
| 20260502050520 | 11 | 154 | 9.7 | 16.1 | 0.05 | 0.05 | 0.00 | 82 | 1016.3 |
| 20260502050039 | 11 | 198 | 8.0 | 19.3 | 0.05 | 0.05 | 0.00 | 82 | 1016.4 |
| 20260502045523 | 11 | 182 | 9.7 | 19.3 | 0.05 | 0.05 | 0.05 | 82 | 1016.5 |
| 20260502045023 | 11 | 236 | 8.0 | 17.7 | 0.03 | 0.03 | 0.03 | 82 | 1016.5 |
| 20260502044554 | 11 | 173 | 9.7 | 16.1 | 0.03 | 0.03 | 0.03 | 82 | 1016.3 |
| 20260502044022 | 11 | 165 | 8.0 | 12.9 | 0.03 | 0.03 | 0.03 | 82 | 1016.6 |
| 20260502043522 | 11 | 150 | 4.8 | 9.7 | 0.03 | 0.03 | 0.03 | 81 | 1016.7 |
| 20260502043038 | 11 | 112 | 1.6 | 6.4 | 0.03 | 0.03 | 0.03 | 81 | 1016.8 |
| 20260502042522 | 11 | 112 | 3.2 | 6.4 | 0.00 | 0.00 | 0.00 | 80 | 1016.7 |
| 20260502042022 | 11 | 90 | 1.6 | 8.0 | 0.00 | 0.00 | 0.00 | 80 | 1016.8 |
| 20260502041537 | 11 | 84 | 4.8 | 11.3 | 0.00 | 0.00 | 0.00 | 80 | 1016.7 |
| 20260502041023 | 11 | 138 | 6.4 | 11.3 | 0.00 | 0.00 | 0.00 | 80 | 1016.5 |
| 20260502040527 | 11 | 144 | 6.4 | 11.3 | 0.00 | 0.00 | 0.00 | 80 | 1016.5 |
| 20260502040045 | 11 | 133 | 4.8 | 12.9 | 0.00 | 0.00 | 0.00 | 79 | 1016.5 |
| 20260502035523 | 11 | 151 | 6.4 | 12.9 | 0.00 | 0.00 | 0.00 | 79 | 1016.6 |
| 20260502035024 | 12 | 159 | 8.0 | 11.3 | 0.00 | 0.00 | 0.00 | 78 | 1016.6 |
| 20260502034538 | 12 | 184 | 4.8 | 6.4 | 0.00 | 0.00 | 0.00 | 78 | 1016.8 |
| 20260502034023 | 12 | 144 | 1.6 | 6.4 | 0.00 | 0.00 | 0.00 | 77 | 1016.8 |
| 20260502033522 | 12 | 111 | 1.6 | 4.8 | 0.00 | 0.00 | 0.00 | 76 | 1017.2 |
| 20260502033041 | 12 | 340 | 0.0 | 4.8 | 0.00 | 0.00 | 0.00 | 76 | 1017.6 |
| 20260502032522 | 12 | 321 | 0.0 | 4.8 | 0.00 | 0.00 | 0.00 | 76 | 1017.6 |
| 20260502032022 | 12 | 0 | 0.0 | 3.2 | 0.00 | 0.00 | 0.00 | 74 | 1017.3 |
| 20260502031540 | 12 | 0 | 0.0 | 4.8 | 0.00 | 0.00 | 0.00 | 72 | 1017.2 |
| 20260502031022 | 12 | 131 | 1.6 | 6.4 | 0.00 | 0.00 | 0.00 | 71 | 1016.8 |
| 20260502030523 | 12 | 131 | 3.2 | 6.4 | 0.00 | 0.00 | 0.00 | 72 | 1016.7 |
| 20260502030039 | 12 | 131 | 3.2 | 6.4 | 0.00 | 0.00 | 0.00 | 73 | 1016.5 |
| 20260502025522 | 12 | 129 | 3.2 | 8.0 | 0.00 | 0.00 | 0.00 | 73 | 1016.4 |
| 20260502025022 | 12 | 123 | 3.2 | 8.0 | 0.00 | 0.00 | 0.00 | 72 | 1016.4 |
| 20260502024541 | 12 | 161 | 3.2 | 9.7 | 0.00 | 0.00 | 0.00 | 69 | 1016.4 |
| 20260502024022 | 12 | 162 | 3.2 | 11.3 | 0.00 | 0.00 | 0.00 | 69 | 1016.4 |
| 20260502023522 | 12 | 155 | 6.4 | 11.3 | 0.00 | 0.00 | 0.00 | 69 | 1016.4 |
| 20260502023044 | 13 | 149 | 8.0 | 11.3 | 0.00 | 0.00 | 0.00 | 69 | 1016.3 |
| 20260502022521 | 13 | 149 | 8.0 | 11.3 | 0.00 | 0.00 | 0.00 | 68 | 1016.4 |
| 20260502022023 | 13 | 173 | 4.8 | 9.7 | 0.00 | 0.00 | 0.00 | 66 | 1016.3 |
| 20260502021538 | 13 | 190 | 1.6 | 4.8 | 0.00 | 0.00 | 0.00 | 65 | 1016.3 |
| 20260502021020 | 13 | 288 | 0.0 | 8.0 | 0.00 | 0.00 | 0.00 | 64 | 1016.3 |
| 20260502020523 | 13 | 0 | 1.6 | 17.7 | 0.00 | 0.00 | 0.00 | 65 | 1016.1 |
| 20260502020048 | 13 | 47 | 6.4 | 17.7 | 0.00 | 0.00 | 0.00 | 64 | 1016.0 |
| 20260502015523 | 13 | 48 | 9.7 | 16.1 | 0.00 | 0.00 | 0.00 | 63 | 1015.9 |
| 20260502015024 | 13 | 33 | 6.4 | 17.7 | 0.00 | 0.00 | 0.00 | 62 | 1015.9 |
| 20260502014538 | 13 | 28 | 11.3 | 19.3 | 0.00 | 0.00 | 0.00 | 60 | 1015.8 |
| 20260502014049 | 13 | 51 | 11.3 | 19.3 | 0.00 | 0.00 | 0.00 | 59 | 1015.6 |
| 20260502013522 | 13 | 59 | 12.9 | 19.3 | 0.00 | 0.00 | 0.00 | 59 | 1015.5 |
| 20260502013053 | 13 | 46 | 11.3 | 19.3 | 0.00 | 0.00 | 0.00 | 57 | 1015.5 |
| 20260502012522 | 13 | 53 | 6.4 | 17.7 | 0.00 | 0.00 | 0.00 | 57 | 1015.4 |
| 20260502012022 | 13 | 54 | 8.0 | 17.7 | 0.00 | 0.00 | 0.00 | 57 | 1015.2 |
| 20260502011543 | 14 | 60 | 6.4 | 19.3 | 0.00 | 0.00 | 0.00 | 57 | 1015.1 |
| 20260502011021 | 14 | 45 | 11.3 | 19.3 | 0.00 | 0.00 | 0.00 | 56 | 1015.0 |
| 20260502010521 | 14 | 60 | 12.9 | 20.9 | 0.00 | 0.00 | 0.00 | 56 | 1015.1 |
| 20260502010036 | 14 | 61 | 12.9 | 20.9 | 0.00 | 0.00 | 0.00 | 56 | 1015.1 |
| 20260502005521 | 14 | 41 | 11.3 | 16.1 | 0.00 | 0.00 | 0.00 | 56 | 1015.2 |
| 20260502005023 | 14 | 38 | 9.7 | 16.1 | 0.00 | 0.00 | 0.00 | 56 | 1015.3 |
| 20260502004538 | 14 | 29 | 9.7 | 16.1 | 0.00 | 0.00 | 0.00 | 55 | 1015.2 |
| 20260502004022 | 14 | 30 | 8.0 | 20.9 | 0.00 | 0.00 | 0.00 | 54 | 1015.0 |
| 20260502003522 | 15 | 41 | 11.3 | 22.5 | 0.00 | 0.00 | 0.00 | 54 | 1015.0 |
| 20260502003039 | 15 | 28 | 12.9 | 24.1 | 0.00 | 0.00 | 0.00 | 54 | 1015.0 |
| 20260502002522 | 15 | 38 | 14.5 | 24.1 | 0.00 | 0.00 | 0.00 | 53 | 1014.9 |
| 20260502002022 | 15 | 19 | 19.3 | 29.0 | 0.00 | 0.00 | 0.00 | 53 | 1014.8 |
| 20260502001556 | 15 | 28 | 17.7 | 29.0 | 0.00 | 0.00 | 0.00 | 52 | 1014.7 |
| 20260502001021 | 15 | 46 | 17.7 | 29.0 | 0.00 | 0.00 | 0.00 | 52 | 1014.7 |
| 20260502000522 | 15 | 40 | 17.7 | 29.0 | 0.00 | 0.00 | 0.00 | 51 | 1014.7 |
| 20260502000037 | 16 | 32 | 19.3 | 33.8 | 0.00 | 0.00 | 0.00 | 51 | 1014.6 |
| 20260501235522 | 16 | 348 | 20.9 | 33.8 | 0.00 | 0.00 | 0.00 | 48 | 1014.7 |
| 20260501235023 | 16 | 360 | 19.3 | 33.8 | 0.00 | 0.00 | 0.00 | 47 | 1014.6 |
| 20260501234539 | 16 | 37 | 14.5 | 27.4 | 0.00 | 0.00 | 0.00 | 46 | 1014.5 |
| 20260501234023 | 17 | 9 | 17.7 | 35.4 | 0.00 | 0.00 | 0.00 | 45 | 1014.5 |
| 20260501233522 | 17 | 34 | 16.1 | 35.4 | 0.00 | 0.00 | 0.00 | 43 | 1014.4 |
| 20260501233045 | 17 | 17 | 14.5 | 35.4 | 0.00 | 0.00 | 0.00 | 39 | 1014.3 |
| 20260501232520 | 17 | 5 | 11.3 | 20.9 | 0.00 | 0.00 | 0.00 | 38 | 1014.1 |
| 20260501232022 | 17 | 33 | 14.5 | 20.9 | 0.00 | 0.00 | 0.00 | 38 | 1014.0 |
| 20260501231539 | 17 | 32 | 11.3 | 20.9 | 0.00 | 0.00 | 0.00 | 38 | 1014.0 |
| 20260501231022 | 17 | 28 | 12.9 | 22.5 | 0.00 | 0.00 | 0.00 | 37 | 1014.1 |
| 20260501230522 | 18 | 40 | 14.5 | 22.5 | 0.00 | 0.00 | 0.00 | 36 | 1014.0 |
| 20260501230040 | 18 | 25 | 9.7 | 17.7 | 0.00 | 0.00 | 0.00 | 38 | 1013.9 |
| 20260501225524 | 18 | 47 | 11.3 | 16.1 | 0.00 | 0.00 | 0.00 | 35 | 1013.8 |